Location: Deuil
(48.9767°N, 2.3272°E)
Time: 03:46:04
(UTC+00:00)

Cosmos 2360 Rocket - Pass Details

Date: 31 May 2022
Orbit: 832 x 846 km, 71.0° (Epoch: 03 July)

Event Time Altitude Azimuth Distance (km) Brightness Sun altitude
Rises 00:01:20 0° 260° (W) 3,386 5.2 -19.1°
Reaches altitude 10° 00:04:32 10° 278° (W) 2,458 4.7 -19.0°
Maximum altitude 00:08:26 19° 322° (NW) 1,919 4.6 -19.0°
Drops below altitude 10° 00:12:21 10° 7° (N) 2,472 5.9 -18.9°
Sets 00:15:36 0° 25° (NNE) 3,413 6.7 -18.9°
